TimePST,TemperatureF,Dew PointF,Humidity,Sea Level PressureIn,VisibilityMPH,Wind Direction,Wind SpeedMPH,Gust SpeedMPH,PrecipitationIn,Events,Conditions,WindDirDegrees,DateUTC
12:15 AM,24.8,23.0,93,30.26,8.0,Calm,Calm,-,N/A,,Unknown,0,2013-01-01 08:15:00
12:35 AM,24.8,23.0,93,30.26,10.0,Calm,Calm,-,N/A,,Unknown,0,2013-01-01 08:35:00
12:55 AM,24.8,24.8,100,30.26,5.0,Calm,Calm,-,N/A,,Unknown,0,2013-01-01 08:55:00
1:15 AM,26.6,24.8,93,30.26,5.0,Calm,Calm,-,N/A,,Unknown,0,2013-01-01 09:15:00
1:35 AM,26.6,24.8,93,30.26,4.0,Calm,Calm,-,N/A,,Unknown,0,2013-01-01 09:35:00
1:55 AM,26.6,24.8,93,30.27,5.0,Calm,Calm,-,N/A,,Unknown,0,2013-01-01 09:55:00
2:15 AM,26.6,24.8,93,30.28,3.0,Calm,Calm,-,N/A,,Unknown,0,2013-01-01 10:15:00
2:35 AM,26.6,24.8,93,30.29,7.0,Calm,Calm,-,N/A,,Unknown,0,2013-01-01 10:35:00
2:55 AM,26.6,24.8,93,30.29,8.0,Calm,Calm,-,N/A,,Unknown,0,2013-01-01 10:55:00
3:15 AM,26.6,24.8,93,30.29,4.0,Calm,Calm,-,N/A,,Unknown,0,2013-01-01 11:15:00
3:35 AM,26.6,24.8,93,30.29,6.0,Calm,Calm,-,N/A,,Unknown,0,2013-01-01 11:35:00
3:55 AM,26.6,24.8,93,30.30,7.0,Calm,Calm,-,N/A,,Unknown,0,2013-01-01 11:55:00
4:15 AM,26.6,24.8,93,30.30,9.0,Calm,Calm,-,N/A,,Unknown,0,2013-01-01 12:15:00
4:35 AM,26.6,24.8,93,30.30,7.0,Calm,Calm,-,N/A,,Unknown,0,2013-01-01 12:35:00
4:55 AM,26.6,24.8,93,30.29,4.0,Calm,Calm,-,N/A,,Unknown,0,2013-01-01 12:55:00
5:15 AM,26.6,24.8,93,30.30,10.0,Calm,Calm,-,N/A,,Unknown,0,2013-01-01 13:15:00
5:35 AM,26.6,24.8,93,30.30,9.0,Calm,Calm,-,N/A,,Unknown,0,2013-01-01 13:35:00
5:55 AM,26.6,24.8,93,30.31,10.0,Calm,Calm,-,N/A,,Unknown,0,2013-01-01 13:55:00
6:15 AM,26.6,24.8,93,30.30,10.0,Calm,Calm,-,N/A,,Unknown,0,2013-01-01 14:15:00
6:35 AM,26.6,24.8,93,30.30,10.0,Calm,Calm,-,N/A,,Unknown,0,2013-01-01 14:35:00
6:55 AM,26.6,24.8,93,30.30,10.0,North,4.6,-,N/A,,Unknown,10,2013-01-01 14:55:00
7:15 AM,26.6,24.8,93,30.30,10.0,NE,3.5,-,N/A,,Unknown,50,2013-01-01 15:15:00
7:35 AM,26.6,24.8,93,30.31,10.0,Calm,Calm,-,N/A,,Unknown,0,2013-01-01 15:35:00
7:55 AM,26.6,24.8,93,30.32,10.0,WSW,3.5,-,N/A,,Unknown,250,2013-01-01 15:55:00
8:15 AM,26.6,24.8,93,30.33,10.0,WNW,3.5,-,N/A,,Unknown,300,2013-01-01 16:15:00
8:35 AM,26.6,24.8,93,30.34,10.0,Calm,Calm,-,N/A,,Unknown,0,2013-01-01 16:35:00
8:55 AM,26.6,24.8,93,30.36,10.0,Calm,Calm,-,N/A,,Unknown,0,2013-01-01 16:55:00
9:15 AM,26.6,24.8,93,30.36,10.0,Calm,Calm,-,N/A,,Unknown,0,2013-01-01 17:15:00
9:35 AM,26.6,24.8,93,30.37,10.0,Calm,Calm,-,N/A,,Unknown,0,2013-01-01 17:35:00
9:55 AM,26.6,24.8,93,30.37,10.0,Calm,Calm,-,N/A,,Unknown,0,2013-01-01 17:55:00
10:15 AM,26.6,24.8,93,30.38,10.0,Calm,Calm,-,N/A,,Unknown,0,2013-01-01 18:15:00
10:35 AM,28.4,24.8,86,30.38,10.0,Calm,Calm,-,N/A,,Unknown,0,2013-01-01 18:35:00
10:55 AM,28.4,24.8,86,30.37,10.0,Calm,Calm,-,N/A,,Unknown,0,2013-01-01 18:55:00
11:15 AM,28.4,24.8,86,30.37,10.0,Calm,Calm,-,N/A,,Unknown,0,2013-01-01 19:15:00
11:35 AM,28.4,24.8,86,30.36,10.0,Calm,Calm,-,N/A,,Unknown,0,2013-01-01 19:35:00
11:55 AM,30.2,26.6,86,30.35,10.0,Calm,Calm,-,N/A,,Unknown,0,2013-01-01 19:55:00
12:15 PM,30.2,26.6,86,30.34,10.0,Calm,Calm,-,N/A,,Unknown,0,2013-01-01 20:15:00
12:35 PM,32.0,26.6,80,30.33,10.0,Calm,Calm,-,N/A,,Unknown,0,2013-01-01 20:35:00
12:55 PM,32.0,26.6,80,30.32,10.0,Calm,Calm,-,N/A,,Unknown,0,2013-01-01 20:55:00
1:15 PM,33.8,26.6,75,30.31,10.0,Calm,Calm,-,N/A,,Unknown,0,2013-01-01 21:15:00
1:35 PM,33.8,28.4,81,30.30,10.0,Calm,Calm,-,N/A,,Unknown,0,2013-01-01 21:35:00
1:55 PM,37.4,26.6,65,30.29,10.0,Calm,Calm,-,N/A,,Unknown,0,2013-01-01 21:55:00
2:15 PM,37.4,28.4,70,30.29,10.0,Calm,Calm,-,N/A,,Unknown,0,2013-01-01 22:15:00
2:35 PM,37.4,28.4,70,30.29,10.0,SSW,3.5,-,N/A,,Unknown,210,2013-01-01 22:35:00
2:55 PM,39.2,28.4,65,30.28,10.0,Calm,Calm,-,N/A,,Unknown,0,2013-01-01 22:55:00
3:15 PM,39.2,28.4,65,30.28,10.0,Calm,Calm,-,N/A,,Unknown,0,2013-01-01 23:15:00
3:35 PM,39.2,28.4,65,30.28,10.0,Calm,Calm,-,N/A,,Unknown,0,2013-01-01 23:35:00
3:55 PM,39.2,28.4,65,30.28,10.0,SW,4.6,-,N/A,,Unknown,220,2013-01-01 23:55:00
4:15 PM,37.4,28.4,70,30.28,10.0,Calm,Calm,-,N/A,,Unknown,0,2013-01-02 00:15:00
4:35 PM,33.8,28.4,81,30.27,10.0,Calm,Calm,-,N/A,,Unknown,0,2013-01-02 00:35:00
4:55 PM,32.0,28.4,87,30.27,7.0,Calm,Calm,-,N/A,,Unknown,0,2013-01-02 00:55:00
5:15 PM,32.0,28.4,87,30.27,5.0,Calm,Calm,-,N/A,,Unknown,0,2013-01-02 01:15:00
5:35 PM,30.2,26.6,86,30.27,8.0,Calm,Calm,-,N/A,,Unknown,0,2013-01-02 01:35:00
5:55 PM,28.4,26.6,93,30.28,9.0,Calm,Calm,-,N/A,,Unknown,0,2013-01-02 01:55:00
6:15 PM,28.4,26.6,93,30.28,10.0,Calm,Calm,-,N/A,,Unknown,0,2013-01-02 02:15:00
6:35 PM,28.4,26.6,93,30.29,10.0,Calm,Calm,-,N/A,,Unknown,0,2013-01-02 02:35:00
6:55 PM,28.4,26.6,93,30.29,9.0,Calm,Calm,-,N/A,,Unknown,0,2013-01-02 02:55:00
7:15 PM,26.6,24.8,93,30.30,10.0,North,3.5,-,N/A,,Unknown,360,2013-01-02 03:15:00
7:35 PM,26.6,24.8,93,30.30,10.0,Calm,Calm,-,N/A,,Unknown,0,2013-01-02 03:35:00
7:55 PM,26.6,24.8,93,30.29,5.0,Calm,Calm,-,N/A,,Unknown,0,2013-01-02 03:55:00
8:15 PM,24.8,24.8,100,30.30,5.0,NNE,3.5,-,N/A,,Unknown,30,2013-01-02 04:15:00
8:35 PM,26.6,24.8,93,30.30,7.0,Calm,Calm,-,N/A,,Unknown,0,2013-01-02 04:35:00
8:55 PM,24.8,23.0,93,30.30,7.0,Calm,Calm,-,N/A,,Unknown,0,2013-01-02 04:55:00
9:15 PM,24.8,23.0,93,30.30,8.0,Calm,Calm,-,N/A,,Unknown,0,2013-01-02 05:15:00
9:35 PM,24.8,23.0,93,30.31,7.0,Calm,Calm,-,N/A,,Unknown,0,2013-01-02 05:35:00
9:55 PM,24.8,23.0,93,30.31,8.0,Calm,Calm,-,N/A,,Unknown,0,2013-01-02 05:55:00
10:15 PM,24.8,23.0,93,30.31,5.0,Calm,Calm,-,N/A,,Unknown,0,2013-01-02 06:15:00
10:35 PM,24.8,23.0,93,30.32,10.0,Calm,Calm,-,N/A,,Unknown,0,2013-01-02 06:35:00
10:55 PM,23.0,23.0,100,30.32,5.0,Calm,Calm,-,N/A,,Unknown,0,2013-01-02 06:55:00
11:15 PM,24.8,23.0,93,30.32,1.2,Calm,Calm,-,N/A,,Unknown,0,2013-01-02 07:15:00
11:35 PM,24.8,24.8,100,30.32,1.0,NNE,4.6,-,N/A,,Unknown,20,2013-01-02 07:35:00
11:55 PM,24.8,24.8,100,30.32,0.5,Calm,Calm,-,N/A,,Unknown,0,2013-01-02 07:55:00